sat.trackr.live / text

‹ back to catalog

HEAD-3D

NORAD 57629 · 2023-121D

PAYLOAD ACTIVE UNKNOWN

§ Identity

Operator
Country
PRC
Launch date
2023-08-14
Launch site
XICLF
Launch vehicle
Mass (kg)
RCS (m²)

External: N2YO · Heavens-Above · Gunter

§ Orbital elements

Epoch: 2026-05-25T04:40:40.013184Z

Period
98.44 min
Inclination
45.0049°
Eccentricity
0.0006379
Mean motion
14.62878007 rev/d
Perigee alt
679.4 km
Apogee alt
688.4 km
Semi-major
7,062.0 km
B*
1.9264e-4
RAAN
48.1030°
Arg perigee
149.2051°
Mean anomaly
210.9182°
Rev number
14,843

§ Raw data

HEAD-3D1 57629U 23121D   26145.19490756  .00000832  00000+0  19264-3 0  99942 57629  45.0049  48.1030 0006379 149.2051 210.9182 14.62878007148432

JSON: /api/v1/satellites/57629 · /tle

For live sub-satellite position, see the globe view (requires WebGL).

§ Visibility from observer

Set your observer location to see the next 7 days of passes ≥ 10°. The values pass through the URL so the page stays shareable.

No JS? Fill the form by hand. The geolocation button needs JavaScript.